Regional Weather Roundup
Issued by NWS

Home | Current Version | Previous Version | Graphics & Text | Print | Product List | Glossary On
Versions: 1 2 3 4 5 6 7 8 9 10 11 12 13 14 15 16 17 18 19 20 21 22 23 24 25 26 27 28 29 30 31 32 33 34 35 36 37 38 39 40 41 42 43 44 45 46 47 48 49 50
000
ASUS45 KABQ 171701
RWRNM
NEW MEXICO REGIONAL WEATHER ROUNDUP
NATIONAL WEATHER SERVICE ALBUQUERQUE NM
1000 AM MST WED JAN 17 2018

NOTE: "FAIR" MEANS FEW OR NO CLOUDS BELOW 12,000 FEET AGL WITH NO
       SIGNIFICANT WEATHER OR OBSTRUCTIONS TO VISION.

      THIS PRODUCT IS RELEASED AS TWO VERSIONS.  ONE VERSION NEAR
      THE TOP OF THE HOUR CONTAINING PRELIMINARY DATA FROM ALBUQUERQUE
      AND OTHER STATIONS.  A FINAL VERSION WITH ADDITIONAL DATA IS
      ISSUED ABOUT 10 MINUTES AFTER THE HOUR.

NMZ501-503-504-510>518-171800-
NORTHWEST PLATEAU/NORTHCENTRAL MOUNTAINS

CITY           SKY/WX    TMP DP  RH WIND       PRES   REMARKS
FARMINGTON     FAIR      27  17  66 E8        30.40R WCI  19
LOS ALAMOS     FAIR      27  16  64 E3        30.35R
SANTA FE       FAIR      28  15  58 N13       30.35S WCI  17
TAOS           FAIR      25  13  60 E6        30.38S WCI  18
ANGEL FIRE     FAIR      23  11  61 CALM      30.33F

$$
NMZ402-403-502-505>509-171800-
WESTCENTRAL MOUNTAINS/SOUTHWEST MOUNTAINS

CITY           SKY/WX    TMP DP  RH WIND       PRES   REMARKS
GALLUP         CLOUDY    30  18  60 E5        30.38R WCI  25
GRANTS         PTSUNNY   24  14  66 NW6       30.41R WCI  16
SILVER CITY    CLOUDY    30  14  50 CALM      30.41R

$$
NMZ407-409-411-412-171800-
SOUTHERN DESERTS

CITY           SKY/WX    TMP DP  RH WIND       PRES   REMARKS
DEMING         FAIR      32   8  36 E9        30.45R WCI  24
LAS CRUCES     FAIR      32   8  36 CALM      30.46R
HOLLOMAN AFB   FAIR      34   6  31 NW6       30.49R WCI  29
ALAMOGORDO     FAIR      32   5  32 NW5       30.47R WCI  27
T OR C         FAIR      31  12  45 CALM      30.43R

$$
NMZ519>523-171800-
CENTRAL VALLEYS/CENTRAL HIGHLANDS

CITY           SKY/WX    TMP DP  RH WIND       PRES   REMARKS
ALBUQUERQUE    FAIR      28  14  55 CALM      30.43R
MORIARTY ARPT  FAIR      33  19  55 NW8       30.37S WCI  26
CLINES CORNERS FAIR      29  13  51 NW26G37   30.30R WCI  14
BELEN          FAIR      28  11  50 CALM      30.44R
SOCORRO        FAIR      27   9  46 CALM      30.44S

$$
NMZ524>526-539-540-171800-
SOUTHCENTRAL MOUNTAINS

CITY           SKY/WX    TMP DP  RH WIND       PRES   REMARKS
RUIDOSO        FAIR      30  10  43 NE3       30.34R

$$
NMZ527>531-171800-
NORTHEAST HIGHLANDS/NORTHEAST PLAINS

CITY           SKY/WX    TMP DP  RH WIND       PRES   REMARKS
LAS VEGAS      FAIR      31  22  69 NE8       30.26R WCI  23
RATON          FAIR      29  19  66 NE9       30.28R WCI  20
CLAYTON        FAIR      37  21  52 S7        30.29R WCI  32

$$
NMZ532>537-171800-
EASTCENTRAL PLAINS

CITY           SKY/WX    TMP DP  RH WIND       PRES   REMARKS
SANTA ROSA     FAIR      29   8  41 SE12      30.34S WCI  19
TUCUMCARI      FAIR      34   5  29 SW18      30.36S WCI  23
CANNON AFB     FAIR      31   2  28 SW18      30.42S WCI  19
CLOVIS AIRPORT FAIR      33   3  28 SW13      30.43S WCI  24

$$
NMZ028-029-538-171800-
SOUTHEAST PLAINS

CITY           SKY/WX    TMP DP  RH WIND       PRES   REMARKS
ROSWELL        FAIR      29   1  30 S13       30.45S WCI  19
ARTESIA        FAIR      32   1  27 SE20      30.46S WCI  20
CARLSBAD       CLOUDY    31   3  30 S14       30.47S WCI  21
HOBBS          PTSUNNY   30  -8  19 S14G20    30.48S WCI  20


$$




USA.gov is the U.S. government's official web portal to all federal, state and local government web resources and services.